Location: Camp at the Woods
(43.2055°N, 93.0905°W)
Time: 01:09:33
(UTC+00:00)

Cosmos 2227 Rocket - Pass Details

Date: 24 May 2025
Orbit: 837 x 844 km, 71.0° (Epoch: 12 June)

Event Time Altitude Azimuth Distance (km) Brightness Sun altitude
Exits shadow 10:01:28 - 267° (W) 3,171 4.7 -6.7°
Reaches altitude 10° 10:04:40 10° 291° (WNW) 2,457 4.3 -6.2°
Maximum altitude 10:07:12 13° 318° (NW) 2,249 4.4 -5.9°
Drops below altitude 10° 10:09:46 10° 345° (NNW) 2,464 4.9 -5.5°
Sets 10:13:46 0° 13° (NNE) 3,405 6.2 -4.9°
